When you browse on this site, cookies collect data to enhance your experience and personalize the content and advertising you see.
Visit our Privacy Policy to learn more. By continuing to use the site, you agree to this use of cookies and data.
  • In Romania
  • List of Countries
  • For 7 days
  • Water Temperature
  • Satellite Maps
  • Weather Map
  • Weather Widgets
  • user-avatar
    Login

    Hourly Weather Gulabpura

    Today, 21 July, Sunday

    Time Temperature Precipitation Wind Pressure Humidity
    00:00 +35°C° 0 mm 1 mps 718 mmHg 50%
    01:00 +34°C° 0 mm 1 mps 718 mmHg 52%
    02:00 +34°C° 0 mm 1 mps 717 mmHg 53%
    03:00 +34°C° 0.2 mm 1 mps 717 mmHg 54%
    04:00 +33°C° 0.2 mm 1 mps 717 mmHg 55%
    05:00 +33°C° 0 mm 3 mps 717 mmHg 58%
    06:00 +33°C° 0.5 mm 3 mps 718 mmHg 56%
    07:00 +34°C° 0.5 mm 3 mps 718 mmHg 54%
    08:00 +34°C° 0.5 mm 3 mps 718 mmHg 53%
    09:00 +35°C° 0 mm 3 mps 718 mmHg 49%
    10:00 +37°C° 0 mm 2 mps 718 mmHg 45%
    11:00 +38°C° 0 mm 2 mps 719 mmHg 43%
    12:00 +37°C° 0 mm 1 mps 718 mmHg 40%
    13:00 +39°C° 0 mm 1 mps 718 mmHg 37%
    14:00 +40°C° 0 mm 1 mps 717 mmHg 34%
    15:00 +40°C° 0 mm 1 mps 717 mmHg 34%
    16:00 +40°C° 0 mm 1 mps 716 mmHg 33%
    17:00 +40°C° 0 mm 1 mps 715 mmHg 33%
    18:00 +40°C° 0 mm 1 mps 716 mmHg 35%
    19:00 +39°C° 0 mm 1 mps 716 mmHg 37%
    20:00 +39°C° 0 mm 2 mps 717 mmHg 39%
    21:00 +39°C° 0 mm 1 mps 717 mmHg 41%
    22:00 +37°C° 0 mm 1 mps 717 mmHg 43%
    23:00 +37°C° 0 mm 1 mps 717 mmHg 45%

    Tomorrow, 22 July, Monday

    Time Temperature Precipitation Wind Pressure Humidity
    00:00 +36°C° 0 mm 1 mps 716 mmHg 46%
    01:00 +37°C° 0 mm 2 mps 716 mmHg 46%
    02:00 +37°C° 0 mm 2 mps 716 mmHg 47%
    03:00 +36°C° 0 mm 2 mps 716 mmHg 48%
    04:00 +36°C° 0 mm 2 mps 716 mmHg 50%
    05:00 +35°C° 0 mm 3 mps 716 mmHg 51%
    06:00 +35°C° 0 mm 3 mps 717 mmHg 51%
    07:00 +36°C° 0 mm 3 mps 717 mmHg 51%
    08:00 +36°C° 0 mm 3 mps 718 mmHg 50%
    09:00 +37°C° 0 mm 2 mps 718 mmHg 47%
    10:00 +38°C° 0 mm 2 mps 718 mmHg 43%
    11:00 +40°C° 0 mm 1 mps 718 mmHg 39%
    12:00 +40°C° 0 mm 1 mps 717 mmHg 37%
    13:00 +40°C° 0 mm 1 mps 717 mmHg 35%
    14:00 +41°C° 0 mm 1 mps 716 mmHg 34%
    15:00 +41°C° 0 mm 1 mps 716 mmHg 34%
    16:00 +41°C° 0 mm 1 mps 716 mmHg 34%
    17:00 +41°C° 0 mm 2 mps 715 mmHg 34%
    18:00 +40°C° 0 mm 2 mps 716 mmHg 37%
    19:00 +39°C° 0 mm 1 mps 716 mmHg 39%
    20:00 +39°C° 0 mm 1 mps 716 mmHg 41%
    21:00 +37°C° 0 mm 1 mps 716 mmHg 43%
    22:00 +38°C° 0 mm 2 mps 716 mmHg 44%
    23:00 +37°C° 0 mm 2 mps 716 mmHg 45%

    Day after tomorrow, 23 July, Tuesday

    Time Temperature Precipitation Wind Pressure Humidity
    00:00 +37°C° 0 mm 2 mps 716 mmHg 48%
    01:00 +36°C° 0 mm 3 mps 716 mmHg 51%
    02:00 +35°C° 0 mm 3 mps 716 mmHg 53%
    03:00 +35°C° 0 mm 4 mps 716 mmHg 56%
    04:00 +34°C° 0 mm 4 mps 716 mmHg 60%
    05:00 +33°C° 0 mm 4 mps 716 mmHg 63%
    06:00 +34°C° 0 mm 4 mps 716 mmHg 61%
    07:00 +34°C° 0 mm 4 mps 717 mmHg 60%
    08:00 +35°C° 0 mm 4 mps 717 mmHg 58%
    09:00 +36°C° 0 mm 4 mps 717 mmHg 52%
    10:00 +38°C° 0 mm 4 mps 717 mmHg 46%
    11:00 +40°C° 0 mm 3 mps 717 mmHg 41%
    12:00 +40°C° 0 mm 3 mps 717 mmHg 39%
    13:00 +40°C° 0 mm 3 mps 716 mmHg 37%
    14:00 +41°C° 0 mm 2 mps 716 mmHg 35%
    15:00 +41°C° 0 mm 2 mps 715 mmHg 36%
    16:00 +41°C° 0 mm 2 mps 715 mmHg 36%
    17:00 +40°C° 0 mm 2 mps 715 mmHg 37%
    18:00 +40°C° 0 mm 2 mps 715 mmHg 39%
    19:00 +39°C° 0 mm 3 mps 715 mmHg 41%
    20:00 +38°C° 0 mm 3 mps 716 mmHg 42%
    21:00 +38°C° 0 mm 3 mps 716 mmHg 45%
    22:00 +37°C° 0 mm 3 mps 716 mmHg 48%
    23:00 +36°C° 0 mm 3 mps 716 mmHg 51%

    24 July, Wednesday

    Time Temperature Precipitation Wind Pressure Humidity
    00:00 +36°C° 0 mm 4 mps 716 mmHg 52%
    01:00 +36°C° 0 mm 4 mps 716 mmHg 53%
    02:00 +35°C° 0 mm 4 mps 715 mmHg 54%
    03:00 +35°C° 0 mm 5 mps 715 mmHg 56%
    04:00 +34°C° 0 mm 5 mps 715 mmHg 57%
    05:00 +34°C° 0 mm 6 mps 715 mmHg 59%
    06:00 +34°C° 0.3 mm 6 mps 716 mmHg 58%
    07:00 +34°C° 0.3 mm 6 mps 716 mmHg 57%
    08:00 +35°C° 0.3 mm 7 mps 717 mmHg 56%
    09:00 +36°C° 0 mm 6 mps 717 mmHg 52%
    10:00 +39°C° 0 mm 6 mps 717 mmHg 47%
    11:00 +41°C° 0 mm 6 mps 717 mmHg 43%
    12:00 +41°C° 0 mm 5 mps 716 mmHg 40%
    13:00 +42°C° 0 mm 5 mps 716 mmHg 37%
    14:00 +43°C° 0 mm 4 mps 715 mmHg 34%
    15:00 +43°C° 0 mm 4 mps 715 mmHg 34%
    16:00 +42°C° 0 mm 4 mps 714 mmHg 34%
    17:00 +42°C° 0 mm 4 mps 714 mmHg 34%
    18:00 +41°C° 0 mm 4 mps 715 mmHg 38%
    19:00 +40°C° 0 mm 4 mps 715 mmHg 42%
    20:00 +37°C° 0 mm 5 mps 715 mmHg 47%
    21:00 +37°C° 0.1 mm 5 mps 716 mmHg 49%
    22:00 +36°C° 0.1 mm 5 mps 716 mmHg 52%
    23:00 +35°C° 0.1 mm 5 mps 716 mmHg 55%

    25 July, Thursday

    Time Temperature Precipitation Wind Pressure Humidity
    00:00 +35°C° 0.4 mm 5 mps 716 mmHg 57%
    01:00 +34°C° 0.4 mm 5 mps 716 mmHg 60%
    02:00 +33°C° 0.4 mm 6 mps 715 mmHg 62%
    03:00 +33°C° 0.2 mm 6 mps 715 mmHg 63%
    04:00 +32°C° 0.2 mm 6 mps 715 mmHg 63%
    05:00 +32°C° 0.2 mm 6 mps 716 mmHg 64%
    06:00 +32°C° 0 mm 6 mps 716 mmHg 64%
    07:00 +33°C° 0 mm 6 mps 717 mmHg 65%
    08:00 +33°C° 0 mm 6 mps 717 mmHg 66%
    09:00 +34°C° 0 mm 5 mps 717 mmHg 61%
    10:00 +35°C° 0 mm 5 mps 717 mmHg 56%
    11:00 +36°C° 0 mm 4 mps 718 mmHg 50%
    12:00 +37°C° 0 mm 4 mps 717 mmHg 48%
    13:00 +38°C° 0 mm 4 mps 717 mmHg 45%
    14:00 +38°C° 0 mm 3 mps 716 mmHg 42%
    15:00 +38°C° 0.1 mm 3 mps 716 mmHg 42%
    16:00 +38°C° 0.1 mm 3 mps 715 mmHg 43%
    17:00 +38°C° 0.1 mm 3 mps 715 mmHg 43%
    18:00 +36°C° 0.5 mm 4 mps 715 mmHg 50%
    19:00 +35°C° 0.5 mm 5 mps 716 mmHg 58%
    20:00 +33°C° 0.5 mm 6 mps 716 mmHg 65%
    21:00 +33°C° 1.2 mm 6 mps 716 mmHg 66%
    22:00 +32°C° 1.2 mm 5 mps 717 mmHg 67%
    23:00 +32°C° 1.2 mm 5 mps 717 mmHg 68%

    26 July, Friday

    Time Temperature Precipitation Wind Pressure Humidity
    00:00 +32°C° 0.3 mm 5 mps 716 mmHg 68%
    01:00 +32°C° 0.3 mm 5 mps 716 mmHg 67%
    02:00 +32°C° 0.3 mm 4 mps 716 mmHg 66%
    03:00 +30°C° 0 mm 5 mps 716 mmHg 68%
    04:00 +30°C° 0 mm 6 mps 716 mmHg 70%
    05:00 +30°C° 0 mm 6 mps 716 mmHg 72%
    06:00 +30°C° 0 mm 6 mps 716 mmHg 72%
    07:00 +30°C° 0 mm 6 mps 716 mmHg 72%
    08:00 +29°C° 0 mm 7 mps 717 mmHg 72%
    09:00 +30°C° 0 mm 6 mps 717 mmHg 70%
    10:00 +30°C° 0 mm 6 mps 717 mmHg 68%
    11:00 +32°C° 0 mm 5 mps 717 mmHg 66%
    12:00 +32°C° 0.1 mm 5 mps 717 mmHg 63%
    13:00 +33°C° 0.1 mm 5 mps 716 mmHg 60%
    14:00 +34°C° 0.1 mm 5 mps 716 mmHg 57%
    15:00 +34°C° 0.3 mm 5 mps 716 mmHg 56%
    16:00 +34°C° 0.3 mm 5 mps 716 mmHg 55%
    17:00 +35°C° 0.3 mm 5 mps 715 mmHg 54%
    18:00 +34°C° 0.4 mm 5 mps 716 mmHg 57%
    19:00 +33°C° 0.4 mm 4 mps 716 mmHg 60%
    20:00 +32°C° 0.4 mm 4 mps 716 mmHg 63%
    21:00 +32°C° 0.2 mm 4 mps 716 mmHg 64%
    22:00 +32°C° 0.2 mm 4 mps 716 mmHg 65%
    23:00 +32°C° 0.2 mm 5 mps 716 mmHg 66%
    Show more